TimeEST,TemperatureF,Dew PointF,Humidity,Sea Level PressureIn,VisibilityMPH,Wind Direction,Wind SpeedMPH,Gust SpeedMPH,PrecipitationIn,Events,Conditions,WindDirDegrees,DateUTC
12:15 AM,37.4,17.6,45,30.18,10.0,Calm,Calm,-,N/A,,Clear,0,2013-11-15 05:15:00
12:35 AM,37.4,17.6,45,30.19,10.0,SSW,4.6,-,N/A,,Clear,210,2013-11-15 05:35:00
12:55 AM,35.6,19.4,52,30.19,10.0,South,3.5,-,N/A,,Clear,190,2013-11-15 05:55:00
1:15 AM,30.2,19.4,64,30.18,10.0,South,5.8,-,N/A,,Clear,190,2013-11-15 06:15:00
1:35 AM,32.0,21.2,64,30.18,10.0,SSW,4.6,-,N/A,,Clear,200,2013-11-15 06:35:00
1:55 AM,32.0,19.4,60,30.18,10.0,Calm,Calm,-,N/A,,Clear,0,2013-11-15 06:55:00
2:15 AM,32.0,21.2,64,30.19,10.0,Calm,Calm,-,N/A,,Clear,0,2013-11-15 07:15:00
2:35 AM,30.2,23.0,75,30.19,10.0,Calm,Calm,-,N/A,,Clear,0,2013-11-15 07:35:00
2:55 AM,33.8,19.4,56,30.19,10.0,SSW,3.5,-,N/A,,Clear,200,2013-11-15 07:55:00
3:15 AM,33.8,19.4,56,30.19,10.0,South,3.5,-,N/A,,Clear,190,2013-11-15 08:15:00
3:35 AM,30.2,24.8,80,30.19,10.0,South,3.5,-,N/A,,Clear,190,2013-11-15 08:35:00
3:55 AM,33.8,21.2,60,30.19,10.0,Calm,Calm,-,N/A,,Clear,0,2013-11-15 08:55:00
4:15 AM,37.4,19.4,48,30.18,10.0,Calm,Calm,-,N/A,,Clear,0,2013-11-15 09:15:00
4:35 AM,35.6,19.4,52,30.18,10.0,Calm,Calm,-,N/A,,Clear,0,2013-11-15 09:35:00
4:55 AM,33.8,17.6,52,30.19,10.0,Calm,Calm,-,N/A,,Clear,0,2013-11-15 09:55:00
5:15 AM,33.8,19.4,56,30.19,10.0,SSW,3.5,-,N/A,,Clear,200,2013-11-15 10:15:00
5:35 AM,35.6,19.4,52,30.19,10.0,Calm,Calm,-,N/A,,Clear,0,2013-11-15 10:35:00
5:55 AM,33.8,19.4,56,30.20,10.0,Calm,Calm,-,N/A,,Clear,0,2013-11-15 10:55:00
6:15 AM,32.0,23.0,69,30.21,10.0,Calm,Calm,-,N/A,,Clear,0,2013-11-15 11:15:00
6:35 AM,30.2,21.2,69,30.20,10.0,Calm,Calm,-,N/A,,Clear,0,2013-11-15 11:35:00
6:55 AM,28.4,21.2,74,30.21,10.0,Calm,Calm,-,N/A,,Clear,0,2013-11-15 11:55:00
7:15 AM,33.8,21.2,60,30.21,10.0,Calm,Calm,-,N/A,,Clear,0,2013-11-15 12:15:00
7:35 AM,33.8,21.2,60,30.22,10.0,Calm,Calm,-,N/A,,Clear,0,2013-11-15 12:35:00
7:55 AM,33.8,21.2,60,30.22,10.0,Calm,Calm,-,N/A,,Clear,0,2013-11-15 12:55:00
8:15 AM,33.8,21.2,60,30.22,10.0,Calm,Calm,-,N/A,,Clear,0,2013-11-15 13:15:00
8:35 AM,37.4,23.0,56,30.22,10.0,Calm,Calm,-,N/A,,Clear,0,2013-11-15 13:35:00
8:55 AM,39.2,24.8,56,30.22,10.0,Calm,Calm,-,N/A,,Clear,0,2013-11-15 13:55:00
9:15 AM,41.0,23.0,49,30.22,10.0,South,4.6,-,N/A,,Clear,190,2013-11-15 14:15:00
9:35 AM,44.6,23.0,43,30.22,10.0,SSW,4.6,-,N/A,,Clear,200,2013-11-15 14:35:00
9:55 AM,46.4,21.2,37,30.22,10.0,SSW,6.9,-,N/A,,Clear,210,2013-11-15 14:55:00
10:15 AM,48.2,21.2,34,30.22,10.0,SSW,8.1,-,N/A,,Clear,210,2013-11-15 15:15:00
10:35 AM,48.2,19.4,32,30.22,10.0,SSW,9.2,17.3,N/A,,Clear,210,2013-11-15 15:35:00
10:55 AM,48.2,19.4,32,30.22,10.0,SW,8.1,-,N/A,,Clear,230,2013-11-15 15:55:00
11:15 AM,51.8,21.2,30,30.22,10.0,SSW,9.2,16.1,N/A,,Clear,210,2013-11-15 16:15:00
11:35 AM,51.8,21.2,30,30.21,10.0,SW,11.5,17.3,N/A,,Clear,230,2013-11-15 16:35:00
11:55 AM,53.6,21.2,28,30.20,10.0,SW,12.7,19.6,N/A,,Clear,230,2013-11-15 16:55:00
12:15 PM,53.6,19.4,26,30.19,10.0,SW,11.5,18.4,N/A,,Clear,220,2013-11-15 17:15:00
12:35 PM,53.6,19.4,26,30.18,10.0,WSW,18.4,21.9,N/A,,Clear,240,2013-11-15 17:35:00
12:55 PM,53.6,19.4,26,30.17,10.0,SW,15.0,19.6,N/A,,Clear,230,2013-11-15 17:55:00
1:15 PM,53.6,19.4,26,30.17,10.0,SSW,12.7,17.3,N/A,,Clear,200,2013-11-15 18:15:00
1:35 PM,53.6,19.4,26,30.17,10.0,SSW,11.5,17.3,N/A,,Clear,210,2013-11-15 18:35:00
1:55 PM,53.6,19.4,26,30.16,10.0,SW,11.5,16.1,N/A,,Clear,220,2013-11-15 18:55:00
2:15 PM,53.6,21.2,28,30.15,10.0,SW,10.4,-,N/A,,Clear,230,2013-11-15 19:15:00
2:35 PM,53.6,21.2,28,30.16,10.0,SSW,11.5,17.3,N/A,,Clear,210,2013-11-15 19:35:00
2:55 PM,53.6,24.8,33,30.15,10.0,SW,12.7,20.7,N/A,,Clear,230,2013-11-15 19:55:00
3:15 PM,55.4,26.6,33,30.14,10.0,SSW,8.1,19.6,N/A,,Clear,210,2013-11-15 20:15:00
3:35 PM,53.6,24.8,33,30.14,10.0,SW,9.2,-,N/A,,Clear,220,2013-11-15 20:35:00
3:55 PM,53.6,26.6,35,30.14,10.0,SW,9.2,-,N/A,,Clear,220,2013-11-15 20:55:00
4:15 PM,53.6,24.8,33,30.14,10.0,SSW,5.8,-,N/A,,Partly Cloudy,210,2013-11-15 21:15:00
4:35 PM,53.6,26.6,35,30.15,10.0,SW,5.8,-,N/A,,Clear,220,2013-11-15 21:35:00
4:55 PM,51.8,26.6,38,30.15,10.0,SW,5.8,-,N/A,,Clear,230,2013-11-15 21:55:00
5:15 PM,50.0,26.6,40,30.14,10.0,SW,3.5,-,N/A,,Clear,220,2013-11-15 22:15:00
5:35 PM,48.2,26.6,43,30.15,10.0,Calm,Calm,-,N/A,,Clear,0,2013-11-15 22:35:00
5:55 PM,46.4,28.4,50,30.15,10.0,Calm,Calm,-,N/A,,Clear,0,2013-11-15 22:55:00
6:15 PM,48.2,28.4,46,30.15,10.0,Calm,Calm,-,N/A,,Clear,0,2013-11-15 23:15:00
6:35 PM,46.4,28.4,50,30.16,10.0,Calm,Calm,-,N/A,,Partly Cloudy,0,2013-11-15 23:35:00
6:55 PM,46.4,28.4,50,30.16,10.0,SSW,3.5,-,N/A,,Mostly Cloudy,200,2013-11-15 23:55:00
7:15 PM,46.4,28.4,50,30.16,10.0,SSW,4.6,-,N/A,,Overcast,200,2013-11-16 00:15:00
7:35 PM,46.4,30.2,53,30.15,10.0,Calm,Calm,-,N/A,,Overcast,0,2013-11-16 00:35:00
7:55 PM,48.2,28.4,46,30.14,10.0,Calm,Calm,-,N/A,,Overcast,0,2013-11-16 00:55:00
8:15 PM,46.4,30.2,53,30.16,10.0,SSW,5.8,-,N/A,,Overcast,200,2013-11-16 01:15:00
8:35 PM,48.2,30.2,50,30.16,10.0,SSW,3.5,-,N/A,,Overcast,210,2013-11-16 01:35:00
8:55 PM,48.2,28.4,46,30.17,10.0,SSW,3.5,-,N/A,,Overcast,210,2013-11-16 01:55:00
9:15 PM,48.2,30.2,50,30.17,10.0,Calm,Calm,-,N/A,,Overcast,0,2013-11-16 02:15:00
9:35 PM,46.4,30.2,53,30.18,10.0,SSW,3.5,-,N/A,,Overcast,200,2013-11-16 02:35:00
9:55 PM,48.2,32.0,54,30.19,10.0,SSW,6.9,-,N/A,,Overcast,200,2013-11-16 02:55:00
10:15 PM,50.0,33.8,54,30.19,10.0,SSW,9.2,-,N/A,,Overcast,210,2013-11-16 03:15:00
10:35 PM,51.8,33.8,50,30.19,10.0,SW,6.9,17.3,N/A,,Overcast,220,2013-11-16 03:35:00
10:55 PM,51.8,33.8,50,30.19,10.0,SSW,11.5,17.3,N/A,,Overcast,200,2013-11-16 03:55:00
11:15 PM,51.8,33.8,50,30.20,10.0,SSW,12.7,19.6,N/A,,Overcast,210,2013-11-16 04:15:00
11:35 PM,50.0,35.6,58,30.20,10.0,SW,8.1,17.3,N/A,,Overcast,220,2013-11-16 04:35:00
11:55 PM,48.2,37.4,66,30.20,10.0,South,4.6,-,N/A,,Overcast,180,2013-11-16 04:55:00